period_start,C,m1,H,J0,J1,J2,J3,J4,J5,JA,JB,JC,JD,JJ,JK,JN,#
2016-05-03 00:00:49,0.03,1.21,0.00,24.87,28.25,31.21,14.30,49.27,1012.71,2032.00,3008.91,2816.63,3166.00,599.71,589.58,23.98,0000 0000 0000 0000 000000
2016-05-03 00:05:50,0.04,1.21,0.00,24.90,28.25,31.25,14.35,49.25,1012.78,2032.00,3008.08,2816.02,3165.31,599.92,589.89,24.03,0000 0000 0000 0000 000000
2016-05-03 00:10:52,0.02,1.21,0.00,24.90,28.27,31.24,14.41,49.38,1012.89,2032.00,3007.65,2815.84,3164.96,600.20,590.26,24.08,0000 0000 0000 0000 000000
2016-05-03 00:15:53,0.04,1.21,0.00,24.90,28.27,31.23,14.40,49.35,1013.03,2031.99,3006.96,2815.09,3164.25,600.04,590.20,24.13,0000 0000 0000 0000 000000
2016-05-03 00:20:54,0.02,1.21,0.00,24.92,28.28,31.23,14.41,49.31,1013.20,2031.99,3006.16,2814.90,3163.86,600.41,590.52,24.18,0000 0000 0000 0000 000000
2016-05-03 00:25:55,0.05,1.22,0.00,24.92,28.30,31.24,14.33,49.40,1013.20,2031.98,3005.42,2814.09,3163.03,599.92,590.12,24.23,0000 0000 0000 0000 000000
2016-05-03 00:30:57,0.06,1.22,0.00,24.93,28.31,31.25,14.43,49.40,1013.20,2031.98,3004.21,2813.33,3162.06,600.43,590.62,24.28,0000 0000 0000 0000 000000
2016-05-03 00:35:58,0.08,1.22,0.00,24.95,28.32,31.28,14.27,49.32,1013.20,2031.97,3002.58,2812.22,3160.89,599.75,589.91,24.33,0000 0000 0000 0000 000000
2016-05-03 00:41:00,0.08,1.23,0.00,24.95,28.34,31.30,14.27,49.39,1013.20,2031.93,3000.82,2811.10,3159.51,599.63,589.88,24.38,0000 0000 0000 0000 000000
2016-05-03 00:46:01,0.05,1.23,0.00,24.97,28.36,31.31,14.33,49.38,1013.18,2031.85,2999.52,2810.13,3158.53,599.84,589.94,24.43,0000 0000 0000 0000 000000
2016-05-03 00:51:02,0.04,1.23,0.00,25.02,28.37,31.33,14.42,49.44,1013.20,2031.69,2998.49,2809.46,3157.77,600.31,590.27,24.48,0000 0000 0000 0000 000000
2016-05-03 00:56:04,-0.01,1.23,0.00,25.00,28.40,31.33,14.36,49.43,1013.20,2031.37,2997.63,2808.95,3157.02,600.19,590.14,24.53,0000 0000 0000 0000 000000
2016-05-03 01:01:05,0.04,1.24,0.00,24.99,28.41,31.36,14.36,49.48,1013.20,2031.14,2996.86,2808.14,3156.28,599.79,589.90,24.58,0000 0000 0000 0000 000000
2016-05-03 01:06:06,0.02,1.24,0.00,25.01,28.42,31.38,14.37,49.46,1013.20,2031.05,2996.01,2807.85,3155.76,600.10,590.01,24.63,0000 0000 0000 0000 000000
2016-05-03 01:11:08,0.04,1.24,0.00,25.01,28.45,31.37,14.42,49.55,1013.21,2031.03,2995.18,2807.10,3155.04,600.20,590.22,24.68,0000 0000 0000 0000 000000
2016-05-03 01:16:09,0.04,1.24,0.00,24.98,28.45,31.36,14.34,49.63,1013.20,2031.01,2994.45,2806.78,3154.38,599.75,590.00,24.73,0000 0000 0000 0000 000000
2016-05-03 01:21:10,0.03,1.24,0.00,25.01,28.47,31.39,14.29,49.57,1013.20,2031.00,2993.82,2806.05,3153.94,600.04,590.16,24.78,0000 0000 0000 0000 000000
2016-05-03 01:26:12,0.03,1.24,0.00,25.02,28.47,31.38,14.36,49.38,1013.20,2031.00,2993.03,2805.76,3153.11,599.92,589.93,24.83,0000 0000 0000 0000 000000
2016-05-03 01:31:13,0.04,1.25,0.00,25.01,28.49,31.39,14.39,49.38,1013.20,2031.00,2992.18,2805.05,3152.69,600.03,590.08,24.88,0000 0000 0000 0000 000000
2016-05-03 01:36:14,0.02,1.25,0.00,25.02,28.50,31.40,14.42,49.41,1013.20,2031.00,2991.62,2804.83,3152.03,600.17,590.20,24.93,0000 0000 0000 0000 000000
2016-05-03 01:41:15,0.03,1.25,0.00,25.05,28.50,31.41,14.22,49.28,1013.20,2031.00,2990.99,2804.09,3151.67,599.65,589.65,24.98,0000 0000 0000 0000 000000
2016-05-03 01:46:17,0.02,1.25,0.00,25.02,28.50,31.43,14.41,49.49,1013.20,2031.00,2990.19,2803.98,3151.03,600.22,590.14,25.03,0000 0000 0000 0000 000000
2016-05-03 01:51:18,0.05,1.25,0.00,25.01,28.51,31.42,14.39,49.41,1013.20,2030.99,2989.59,2803.28,3150.56,600.29,590.29,25.08,0000 0000 0000 0000 000000
2016-05-03 01:56:19,0.01,1.26,0.00,25.03,28.52,31.42,14.38,49.44,1013.20,2030.98,2988.94,2802.98,3150.00,600.41,590.24,25.13,0000 0000 0000 0000 000000
2016-05-03 02:01:20,0.05,1.26,0.00,25.03,28.52,31.40,14.35,49.51,1013.21,2030.98,2988.11,2802.33,3149.38,600.23,590.09,25.18,0000 0000 0000 0000 000000
2016-05-03 02:06:21,0.01,1.26,0.00,25.07,28.52,31.43,14.33,49.44,1013.21,2030.98,2987.52,2802.00,3148.99,600.31,590.22,25.23,0000 0000 0000 0000 000000
2016-05-03 02:11:23,0.04,1.26,0.00,25.09,28.52,31.44,14.44,49.36,1013.21,2030.96,2986.88,2801.58,3148.25,600.35,590.19,25.28,0000 0000 0000 0000 000000
2016-05-03 02:16:24,0.03,1.26,0.00,25.07,28.52,31.42,14.37,49.38,1013.21,2030.99,2986.13,2801.02,3147.98,600.17,590.27,25.33,0000 0000 0000 0000 000000
2016-05-03 02:21:26,0.03,1.26,0.00,25.07,28.52,31.46,14.40,49.63,1013.22,2030.95,2985.39,2800.85,3147.23,600.10,590.01,25.38,0000 0000 0000 0000 000000
2016-05-03 02:26:27,0.03,1.27,0.00,25.10,28.52,31.44,14.34,49.42,1013.27,2030.98,2984.94,2800.10,3146.98,600.24,590.11,25.44,0000 0000 0000 0000 000000
2016-05-03 02:31:28,0.02,1.27,0.00,25.11,28.52,31.44,14.29,49.38,1013.50,2030.95,2984.12,2799.99,3146.26,599.91,589.88,25.49,0000 0000 0000 0000 000000
2016-05-03 02:36:29,0.03,1.27,0.00,25.10,28.52,31.43,14.37,49.32,1013.60,2030.93,2983.46,2799.48,3145.92,599.97,590.21,25.54,0000 0000 0000 0000 000000
2016-05-03 02:41:30,0.02,1.27,0.00,25.11,28.52,31.44,14.34,49.28,1013.64,2030.91,2982.92,2799.01,3145.21,599.99,590.13,25.59,0000 0000 0000 0000 000000
2016-05-03 02:46:32,0.11,1.27,0.00,25.12,28.52,31.45,14.32,49.14,1013.58,2030.93,2980.93,2798.19,3144.34,600.03,590.06,25.64,0000 0000 0000 0000 000000
2016-05-03 02:51:33,0.12,1.28,0.00,25.10,28.53,31.43,14.35,49.30,1013.66,2030.91,2977.57,2796.67,3142.63,600.05,590.11,25.69,0000 0000 0000 0000 000000
2016-05-03 02:56:34,0.03,1.28,0.00,25.11,28.53,31.46,14.44,49.42,1013.57,2030.91,2976.28,2796.02,3141.99,599.93,589.82,25.74,0000 0000 0000 0000 000000
2016-05-03 03:01:36,0.05,1.29,0.00,25.11,28.53,31.46,14.29,49.31,1013.65,2030.94,2975.56,2795.69,3141.31,599.82,589.91,25.79,0000 0000 0000 0000 000000
2016-05-03 03:06:37,0.02,1.29,0.00,25.10,28.53,31.44,14.29,49.21,1013.68,2030.97,2974.93,2795.04,3140.99,599.87,590.01,25.84,0000 0000 0000 0000 000000
2016-05-03 03:11:38,0.03,1.29,0.00,25.11,28.53,31.42,14.34,49.19,1013.65,2030.93,2974.14,2794.92,3140.36,599.97,590.05,25.89,0000 0000 0000 0000 000000
2016-05-03 03:16:39,0.04,1.29,0.00,25.14,28.53,31.44,14.40,49.48,1013.68,2030.90,2973.47,2794.14,3139.94,600.20,590.15,25.94,0000 0000 0000 0000 000000
2016-05-03 03:21:40,0.02,1.29,0.00,25.12,28.53,31.43,14.32,49.27,1013.68,2030.89,2972.93,2794.00,3139.16,600.02,590.18,25.99,0000 0000 0000 0000 000000
2016-05-03 03:26:42,0.03,1.30,0.00,25.15,28.53,31.43,14.32,49.23,1013.68,2030.90,2972.09,2793.37,3138.95,599.78,589.82,26.04,0000 0000 0000 0000 000000
2016-05-03 03:31:43,0.04,1.30,0.00,25.15,28.53,31.43,14.40,49.21,1013.68,2030.92,2971.41,2793.01,3138.20,600.26,590.30,26.09,0000 0000 0000 0000 000000
2016-05-03 03:36:44,0.04,1.30,0.00,25.15,28.53,31.44,14.36,49.41,1013.68,2030.92,2970.62,2792.36,3137.71,599.94,590.07,26.14,0000 0000 0000 0000 000000
2016-05-03 03:41:46,0.02,1.30,0.00,25.16,28.53,31.44,14.24,49.22,1013.69,2030.94,2969.86,2792.00,3137.02,599.72,589.73,26.19,0000 0000 0000 0000 000000
2016-05-03 03:46:47,0.05,1.30,0.00,25.19,28.53,31.40,14.29,49.40,1013.69,2030.88,2969.02,2791.40,3136.32,599.55,589.47,26.24,0000 0000 0000 0000 000000
2016-05-03 03:51:49,0.02,1.31,0.00,25.20,28.53,31.43,14.34,49.51,1013.69,2030.90,2968.12,2790.98,3135.85,599.74,589.83,26.29,0000 0000 0000 0000 000000
2016-05-03 03:56:50,0.05,1.31,0.00,25.19,28.53,31.40,14.44,49.41,1013.70,2030.84,2967.20,2790.16,3135.05,599.96,589.95,26.34,0000 0000 0000 0000 000000
2016-05-03 04:01:51,0.03,1.31,0.00,25.21,28.54,31.41,14.36,49.51,1013.70,2030.85,2966.36,2789.87,3134.62,599.76,589.69,26.39,0000 0000 0000 0000 000000
2016-05-03 04:06:53,0.06,1.31,0.00,25.24,28.54,31.44,14.33,49.34,1013.70,2030.94,2965.42,2789.00,3133.77,600.32,590.13,26.44,0000 0000 0000 0000 000000
2016-05-03 04:11:54,0.06,1.32,0.00,25.22,28.54,31.44,14.36,49.39,1013.70,2030.93,2964.14,2788.10,3132.73,600.63,590.47,26.49,0000 0000 0000 0000 000000
2016-05-03 04:16:55,0.06,1.32,0.00,25.23,28.55,31.42,14.24,49.17,1013.72,2030.93,2962.91,2787.20,3131.77,599.42,589.32,26.54,0000 0000 0000 0000 000000
2016-05-03 04:21:57,0.06,1.32,0.00,25.25,28.55,31.40,14.25,49.38,1013.73,2030.95,2961.78,2786.58,3130.84,599.80,589.68,26.59,0000 0000 0000 0000 000000
2016-05-03 04:26:58,0.06,1.33,0.00,25.22,28.55,31.41,14.26,49.34,1013.83,2030.89,2960.48,2785.59,3129.87,599.73,589.70,26.64,0000 0000 0000 0000 000000
2016-05-03 04:32:00,0.03,1.33,0.00,25.24,28.55,31.42,14.30,49.33,1013.87,2030.84,2959.59,2784.91,3128.98,600.19,590.27,26.69,0000 0000 0000 0000 000000
2016-05-03 04:37:01,0.16,1.33,0.00,25.27,28.55,31.41,14.27,49.17,1013.85,2030.83,2957.07,2783.35,3127.24,599.80,589.70,26.74,0000 0000 0000 0000 000000
2016-05-03 04:42:02,0.21,1.34,0.00,25.25,28.55,31.42,14.44,49.65,1013.85,2030.85,2952.96,2780.64,3124.27,600.08,590.11,26.79,0000 0000 0000 0000 000000
2016-05-03 04:47:03,0.10,1.35,0.00,25.24,28.55,31.43,14.42,49.42,1013.77,2030.88,2950.44,2779.04,3122.37,600.35,590.16,26.84,0000 0000 0000 0000 000000
2016-05-03 04:52:04,0.05,1.35,0.00,25.26,28.55,31.44,14.40,49.52,1013.73,2030.85,2949.43,2778.19,3121.60,600.24,589.99,26.89,0000 0000 0000 0000 000000
2016-05-03 04:57:06,0.03,1.36,0.00,25.27,28.55,31.43,14.32,49.52,1013.77,2030.59,2948.24,2777.38,3120.62,600.10,589.94,26.94,0000 0000 0000 0000 000000
2016-05-03 05:02:07,0.01,1.36,0.00,25.25,28.55,31.43,14.33,49.42,1013.86,2030.41,2947.51,2777.00,3120.00,600.18,590.15,26.99,0000 0000 0000 0000 000000
2016-05-03 05:07:08,0.05,1.36,0.00,25.27,28.55,31.46,14.28,49.38,1014.01,2030.46,2946.88,2776.49,3119.39,599.75,589.92,27.04,0000 0000 0000 0000 000000
2016-05-03 05:12:10,0.03,1.36,0.00,25.27,28.55,31.43,14.38,49.77,1014.09,2030.58,2945.93,2775.99,3118.85,600.22,590.18,27.09,0000 0000 0000 0000 000000
2016-05-03 05:17:11,0.10,1.37,0.00,25.25,28.55,31.43,14.30,49.38,1014.16,2030.70,2944.49,2775.16,3117.72,599.70,589.77,27.14,0000 0000 0000 0000 000000
2016-05-03 05:22:13,0.07,1.37,0.00,25.26,28.55,31.42,14.42,49.48,1014.17,2030.81,2943.23,2774.16,3116.78,599.98,590.07,27.19,0000 0000 0000 0000 000000
2016-05-03 05:27:14,0.05,1.37,0.00,25.28,28.55,31.43,14.36,49.32,1014.18,2030.86,2942.44,2773.62,3116.02,599.92,589.91,27.24,0000 0000 0000 0000 000000
2016-05-03 05:32:15,0.02,1.38,0.00,25.28,28.55,31.42,14.43,49.48,1014.18,2030.81,2941.75,2773.01,3115.27,600.54,590.58,27.29,0000 0000 0000 0000 000000
2016-05-03 05:37:17,0.03,1.38,0.00,25.27,28.55,31.43,14.29,49.25,1014.19,2030.86,2941.04,2772.71,3114.90,600.04,590.09,27.34,0000 0000 0000 0000 000000
2016-05-03 05:42:18,0.02,1.38,0.00,25.29,28.55,31.44,14.35,49.52,1014.19,2030.73,2940.48,2772.04,3114.15,599.70,589.89,27.39,0000 0000 0000 0000 000000
2016-05-03 05:47:19,0.01,1.38,0.00,25.30,28.55,31.42,14.41,49.42,1014.20,2030.65,2939.86,2771.87,3113.76,600.25,590.26,27.44,0000 0000 0000 0000 000000
2016-05-03 05:52:20,0.06,1.38,0.00,25.29,28.55,31.42,14.32,49.39,1014.30,2030.75,2939.04,2771.11,3113.05,599.68,589.94,27.49,0000 0000 0000 0000 000000
2016-05-03 05:57:21,0.02,1.38,0.00,25.27,28.55,31.42,14.36,49.43,1014.33,2030.71,2938.19,2770.97,3112.68,599.95,589.96,27.54,0000 0000 0000 0000 000000
2016-05-03 06:02:23,0.03,1.39,0.00,25.28,28.55,31.42,14.32,49.43,1014.51,2030.62,2937.61,2770.25,3112.02,600.09,590.35,27.59,0000 0000 0000 0000 000000
2016-05-03 06:07:24,0.04,1.39,0.00,25.30,28.55,31.42,14.33,49.48,1014.65,2030.61,2936.65,2769.96,3111.36,599.90,590.18,27.64,0000 0000 0000 0000 000000
2016-05-03 06:12:26,0.04,1.39,0.00,25.30,28.55,31.42,14.23,49.26,1014.66,2030.68,2935.95,2769.24,3110.84,599.32,589.65,27.69,0000 0000 0000 0000 000000
2016-05-03 06:17:27,0.02,1.39,0.00,25.29,28.55,31.42,14.32,49.27,1014.66,2030.57,2935.12,2768.96,3110.07,599.85,590.09,27.74,0000 0000 0000 0000 000000
2016-05-03 06:22:28,0.06,1.39,0.00,25.31,28.56,31.43,14.33,49.47,1014.66,2030.63,2934.43,2768.32,3109.81,600.14,590.27,27.79,0000 0000 0000 0000 000000
2016-05-03 06:27:29,0.05,1.40,0.00,25.32,28.56,31.43,14.40,49.42,1014.66,2030.77,2933.48,2767.99,3109.04,600.18,590.13,27.84,0000 0000 0000 0000 000000
2016-05-03 06:32:30,0.06,1.40,0.00,25.31,28.57,31.43,14.38,49.56,1014.66,2030.82,2932.48,2767.23,3108.27,599.96,590.21,27.89,0000 0000 0000 0000 000000
2016-05-03 06:37:32,0.03,1.40,0.00,25.30,28.57,31.43,14.29,49.22,1014.66,2030.68,2931.48,2766.68,3107.54,600.03,590.29,27.94,0000 0000 0000 0000 000000
2016-05-03 06:42:33,0.02,1.40,0.00,25.32,28.57,31.44,14.42,49.47,1014.67,2030.55,2930.79,2766.04,3107.00,600.23,590.46,27.99,0000 0000 0000 0000 000000
2016-05-03 06:47:34,0.06,1.41,0.00,25.32,28.57,31.44,14.33,49.28,1014.68,2030.71,2930.03,2765.89,3106.41,600.28,590.56,28.04,0000 0000 0000 0000 000000
2016-05-03 06:52:35,0.02,1.41,0.00,25.32,28.57,31.44,14.37,49.52,1014.67,2030.59,2929.19,2765.11,3105.93,599.94,590.19,28.09,0000 0000 0000 0000 000000
2016-05-03 06:57:36,0.04,1.41,0.00,25.32,28.57,31.43,14.26,49.36,1014.79,2030.60,2928.35,2764.84,3105.11,599.60,589.94,28.14,0000 0000 0000 0000 000000
2016-05-03 07:02:37,0.05,1.41,0.00,25.33,28.57,31.44,14.42,49.48,1015.14,2030.53,2927.67,2764.07,3104.65,600.32,590.84,28.19,0000 0000 0000 0000 000000
2016-05-03 07:07:38,0.02,1.41,0.00,25.32,28.57,31.44,14.39,49.51,1015.09,2030.60,2926.96,2763.95,3104.03,600.21,590.77,28.24,0000 0000 0000 0000 000000
2016-05-03 07:12:39,0.04,1.42,0.00,25.32,28.57,31.45,14.43,49.48,1015.02,2030.57,2926.10,2763.14,3103.37,600.75,591.12,28.30,0000 0000 0000 0000 000000
2016-05-03 07:17:41,0.04,1.42,0.00,25.34,28.57,31.45,14.37,49.48,1015.13,2030.60,2925.29,2762.95,3102.94,600.07,590.58,28.35,0000 0000 0000 0000 000000
2016-05-03 07:22:42,0.04,1.42,0.00,25.31,28.57,31.45,14.35,49.48,1015.15,2030.59,2924.75,2762.23,3102.17,600.35,591.03,28.40,0000 0000 0000 0000 000000
2016-05-03 07:27:43,0.00,1.42,0.00,25.29,28.57,31.45,14.37,49.36,1015.15,2030.49,2924.04,2762.00,3101.87,599.94,590.52,28.45,0000 0000 0000 0000 000000
2016-05-03 07:32:45,0.06,1.42,0.00,25.27,28.57,31.44,14.43,49.51,1015.15,2030.44,2923.34,2761.58,3101.11,600.39,591.06,28.50,0000 0000 0000 0000 000000
2016-05-03 07:37:46,0.03,1.42,0.00,25.26,28.57,31.44,14.37,49.29,1015.16,2030.56,2922.89,2761.02,3100.95,600.11,590.77,28.55,0000 0000 0000 0000 000000
2016-05-03 07:42:48,0.02,1.43,0.00,25.23,28.57,31.44,14.42,49.50,1015.17,2030.56,2922.06,2760.98,3100.15,599.95,590.71,28.60,0000 0000 0000 0000 000000
2016-05-03 07:47:49,0.04,1.43,0.00,25.22,28.57,31.44,14.35,49.44,1015.16,2030.75,2921.62,2760.44,3099.99,599.76,590.39,28.65,0000 0000 0000 0000 000000
2016-05-03 07:52:51,0.01,1.43,0.00,25.20,28.57,31.42,14.39,49.46,1015.18,2030.69,2921.01,2760.01,3099.30,599.80,590.57,28.70,0000 0000 0000 0000 000000
2016-05-03 07:57:52,0.00,1.43,0.00,25.20,28.57,31.43,14.34,49.56,1015.16,2030.47,2920.96,2759.99,3099.00,599.61,590.48,28.75,0000 0000 0000 0000 000000
2016-05-03 08:02:53,0.02,1.43,0.00,25.17,28.57,31.44,14.38,49.53,1015.18,2030.45,2920.22,2759.64,3098.84,600.10,591.03,28.80,0000 0000 0000 0000 000000
2016-05-03 08:07:55,0.04,1.43,0.00,25.15,28.57,31.44,14.43,49.56,1015.18,2030.47,2919.98,2759.07,3098.15,599.90,590.81,28.85,0000 0000 0000 0000 000000
2016-05-03 08:12:56,0.00,1.43,0.00,25.15,28.56,31.44,14.44,49.74,1015.18,2030.33,2919.16,2758.98,3097.92,600.15,591.16,28.90,0000 0000 0000 0000 000000
2016-05-03 08:17:57,0.04,1.43,0.00,25.12,28.55,31.43,14.40,49.63,1015.20,2030.36,2918.90,2758.50,3097.19,600.03,591.00,28.95,0000 0000 0000 0000 000000
2016-05-03 08:22:58,0.02,1.44,0.00,25.10,28.55,31.44,14.40,49.54,1015.29,2030.40,2918.19,2758.03,3096.99,600.15,591.18,29.00,0000 0000 0000 0000 000000
2016-05-03 08:28:00,0.01,1.44,0.00,25.11,28.55,31.42,14.37,49.74,1015.56,2030.26,2917.93,2757.98,3096.52,599.53,590.94,29.05,0000 0000 0000 0000 000000
2016-05-03 08:33:01,0.02,1.44,0.00,25.09,28.55,31.41,14.48,49.61,1015.64,2030.16,2917.15,2757.56,3096.01,600.11,591.40,29.10,0000 0000 0000 0000 000000
2016-05-03 08:38:02,0.03,1.44,0.00,25.07,28.54,31.40,14.44,49.62,1015.64,2030.33,2916.98,2757.07,3095.95,599.87,591.22,29.15,0000 0000 0000 0000 000000
2016-05-03 08:43:03,0.03,1.44,0.00,25.07,28.52,31.40,14.43,49.67,1015.64,2030.36,2916.33,2757.00,3095.24,600.37,591.70,29.20,0000 0000 0000 0000 000000
2016-05-03 08:48:05,-0.00,1.44,0.00,25.04,28.52,31.41,14.43,49.58,1015.65,2030.35,2915.99,2756.91,3095.00,599.97,591.57,29.25,0000 0000 0000 0000 000000
2016-05-03 08:53:06,0.06,1.44,0.00,25.01,28.52,31.41,14.39,49.59,1015.67,2030.30,2915.24,2756.18,3094.48,599.89,591.36,29.30,0000 0000 0000 0000 000000
2016-05-03 08:58:07,0.01,1.45,0.00,25.01,28.50,31.39,14.41,49.48,1015.97,2030.34,2914.82,2756.00,3094.01,599.96,591.60,29.35,0000 0000 0000 0000 000000
2016-05-03 09:03:08,0.03,1.45,0.00,25.00,28.50,31.38,14.40,49.65,1016.07,2030.41,2914.08,2755.81,3093.79,600.00,591.72,29.40,0000 0000 0000 0000 000000
2016-05-03 09:08:10,0.05,1.45,0.00,24.96,28.50,31.38,14.43,49.71,1016.10,2030.51,2913.81,2755.08,3093.07,600.15,592.13,29.45,0000 0000 0000 0000 000000
2016-05-03 09:13:11,0.01,1.45,0.00,24.95,28.48,31.36,14.52,49.67,1016.13,2030.61,2913.04,2755.00,3092.91,600.24,592.06,29.50,0000 0000 0000 0000 000000
2016-05-03 09:18:12,0.05,1.45,0.00,24.95,28.47,31.36,14.47,49.66,1016.13,2030.65,2912.59,2754.68,3092.14,600.75,592.63,29.55,0000 0000 0000 0000 000000
2016-05-03 09:23:13,0.02,1.45,0.00,24.92,28.47,31.36,14.40,49.42,1016.13,2030.57,2911.99,2754.02,3091.75,599.66,591.58,29.60,0000 0000 0000 0000 000000
2016-05-03 09:28:15,0.04,1.46,0.00,24.88,28.46,31.36,14.42,49.55,1016.13,2030.72,2911.29,2753.97,3091.04,599.76,591.78,29.65,0000 0000 0000 0000 000000
2016-05-03 09:33:16,0.04,1.46,0.00,24.88,28.45,31.35,14.32,49.52,1016.14,2030.84,2910.98,2753.32,3090.95,599.42,591.40,29.70,0000 0000 0000 0000 000000
2016-05-03 09:38:17,0.04,1.46,0.00,24.88,28.45,31.35,14.42,49.58,1016.14,2030.91,2910.21,2753.01,3090.29,600.03,591.93,29.75,0000 0000 0000 0000 000000
2016-05-03 09:43:18,0.04,1.46,0.00,24.88,28.45,31.33,14.41,49.44,1016.16,2030.95,2909.58,2752.72,3089.82,600.31,592.39,29.80,0000 0000 0000 0000 000000
2016-05-03 09:48:20,0.03,1.46,0.00,24.88,28.43,31.35,14.40,49.60,1016.20,2030.93,2908.98,2752.04,3089.06,599.99,592.05,29.85,0000 0000 0000 0000 000000
2016-05-03 09:53:21,0.02,1.47,0.00,24.87,28.42,31.37,14.42,49.65,1016.17,2030.95,2908.33,2751.98,3088.89,600.03,592.07,29.90,0000 0000 0000 0000 000000
2016-05-03 09:58:22,0.02,1.47,0.00,24.87,28.42,31.36,14.39,49.68,1016.15,2030.95,2907.97,2751.71,3088.18,599.97,592.05,29.95,0000 0000 0000 0000 000000
2016-05-03 10:03:24,0.03,1.47,0.00,24.85,28.41,31.34,14.43,49.68,1016.27,2030.94,2907.24,2751.04,3087.99,599.66,591.89,30.00,0000 0000 0000 0000 000000
2016-05-03 10:08:25,0.02,1.47,0.00,24.86,28.40,31.34,14.41,49.63,1016.28,2030.97,2906.85,2751.00,3087.40,600.04,592.21,30.05,0000 0000 0000 0000 000000
2016-05-03 10:13:26,0.02,1.47,0.00,24.87,28.40,31.39,14.46,49.88,1016.45,2030.97,2906.06,2750.85,3087.00,600.30,592.45,30.10,0000 0000 0000 0000 000000
2016-05-03 10:18:27,0.03,1.47,0.00,24.86,28.40,31.34,14.43,49.65,1016.57,2030.98,2905.84,2750.15,3086.62,600.14,592.59,30.15,0000 0000 0000 0000 000000
2016-05-03 10:23:29,0.02,1.47,0.00,24.85,28.39,31.34,14.36,49.59,1016.62,2030.98,2905.10,2750.00,3086.03,599.42,591.64,30.20,0000 0000 0000 0000 000000
2016-05-03 10:28:30,0.00,1.47,0.00,24.84,28.37,31.36,14.36,49.53,1016.62,2030.99,2904.95,2749.98,3085.99,599.65,591.98,30.25,0000 0000 0000 0000 000000
2016-05-03 10:33:31,0.05,1.48,0.00,24.81,28.37,31.33,14.41,49.73,1016.62,2030.99,2904.18,2749.43,3085.38,599.85,592.29,30.30,0000 0000 0000 0000 000000
2016-05-03 10:38:32,0.01,1.48,0.00,24.81,28.37,31.32,14.43,49.55,1016.63,2030.99,2903.97,2749.02,3085.00,599.98,592.36,30.35,0000 0000 0000 0000 000000
2016-05-03 10:43:33,0.02,1.48,0.00,24.83,28.37,31.30,14.40,49.61,1016.62,2030.99,2903.21,2748.99,3084.77,599.87,592.26,30.40,0000 0000 0000 0000 000000
2016-05-03 10:48:35,0.03,1.48,0.00,24.81,28.35,31.31,14.54,49.93,1016.62,2030.99,2902.87,2748.62,3084.06,600.56,592.95,30.45,0000 0000 0000 0000 000000
2016-05-03 10:53:37,0.02,1.48,0.00,24.80,28.35,31.31,14.35,49.67,1016.63,2030.98,2902.11,2748.05,3083.96,599.31,591.74,30.50,0000 0000 0000 0000 000000
2016-05-03 10:58:38,0.01,1.48,0.00,24.81,28.35,31.27,14.43,49.64,1016.64,2030.99,2901.96,2748.00,3083.34,599.91,592.36,30.55,0000 0000 0000 0000 000000
2016-05-03 11:03:39,0.02,1.48,0.00,24.78,28.35,31.28,14.43,49.60,1016.63,2030.99,2901.29,2747.95,3083.01,600.35,592.87,30.60,0000 0000 0000 0000 000000
2016-05-03 11:08:40,0.02,1.49,0.00,24.77,28.33,31.27,14.40,49.75,1016.71,2030.99,2901.00,2747.58,3082.97,600.03,592.60,30.65,0000 0000 0000 0000 000000
2016-05-03 11:13:41,0.04,1.49,0.00,24.76,28.32,31.27,14.48,49.85,1016.71,2030.99,2900.53,2747.07,3082.42,600.14,592.69,30.70,0000 0000 0000 0000 000000
2016-05-03 11:18:42,0.00,1.49,0.00,24.74,28.32,31.26,14.41,49.68,1016.68,2030.99,2899.99,2747.00,3082.00,599.69,592.29,30.75,0000 0000 0000 0000 000000
2016-05-03 11:23:44,0.03,1.49,0.00,24.72,28.31,31.23,14.51,49.75,1016.63,2030.99,2899.41,2746.78,3081.66,600.30,592.88,30.80,0000 0000 0000 0000 000000
2016-05-03 11:28:45,0.02,1.49,0.00,24.73,28.30,31.24,14.44,49.54,1016.65,2030.99,2899.00,2746.11,3081.04,600.18,592.70,30.85,0000 0000 0000 0000 000000
2016-05-03 11:33:46,0.01,1.49,0.00,24.74,28.30,31.23,14.50,49.51,1016.64,2030.99,2898.52,2746.00,3080.97,600.39,592.85,30.90,0000 0000 0000 0000 000000
2016-05-03 11:38:48,0.01,1.49,0.00,24.72,28.28,31.23,14.53,49.70,1016.64,2030.99,2898.00,2745.98,3080.42,600.49,593.16,30.95,0000 0000 0000 0000 000000
2016-05-03 11:43:49,0.03,1.49,0.00,24.67,28.27,31.22,14.46,49.80,1016.64,2031.01,2897.66,2745.72,3080.01,600.18,592.88,31.00,0000 0000 0000 0000 000000
2016-05-03 11:48:50,0.02,1.50,0.00,24.65,28.26,31.21,14.47,49.66,1016.75,2031.02,2897.02,2745.07,3079.97,599.62,592.44,31.06,0000 0000 0000 0000 000000
2016-05-03 11:53:52,0.03,1.50,0.00,24.64,28.25,31.22,14.38,49.62,1016.81,2031.05,2896.70,2745.00,3079.38,599.79,592.75,31.11,0000 0000 0000 0000 000000
2016-05-03 11:58:53,0.00,1.50,0.00,24.62,28.24,31.24,14.46,49.56,1016.84,2031.04,2896.05,2744.94,3079.00,600.15,592.99,31.16,0000 0000 0000 0000 000000
2016-05-03 12:03:54,0.02,1.50,0.00,24.56,28.22,31.22,14.47,49.68,1017.01,2031.05,2895.90,2744.43,3078.87,599.93,593.05,31.21,0000 0000 0000 0000 000000
2016-05-03 12:08:56,0.04,1.50,0.00,24.53,28.21,31.20,14.48,49.68,1017.08,2031.16,2895.20,2744.02,3078.24,600.12,593.38,31.26,0000 0000 0000 0000 000000
2016-05-03 12:13:57,0.01,1.50,0.00,24.52,28.20,31.18,14.42,49.74,1017.09,2031.33,2895.01,2744.00,3078.01,599.80,592.98,31.31,0000 0000 0000 0000 000000
2016-05-03 12:18:58,0.03,1.50,0.00,24.51,28.18,31.21,14.46,49.72,1017.05,2031.37,2894.49,2743.97,3077.95,599.55,592.95,31.36,0000 0000 0000 0000 000000
2016-05-03 12:23:59,0.04,1.51,0.00,24.47,28.17,31.20,14.50,49.48,1016.93,2031.54,2894.01,2743.65,3077.28,600.17,593.40,31.41,0000 0000 0000 0000 000000
2016-05-03 12:29:01,0.03,1.51,0.00,24.45,28.17,31.20,14.42,49.38,1017.00,2031.56,2893.56,2743.10,3077.00,599.78,593.22,31.46,0000 0000 0000 0000 000000
2016-05-03 12:34:02,0.02,1.51,0.00,24.46,28.15,31.21,14.50,49.50,1017.09,2031.76,2893.02,2743.00,3076.96,600.12,593.51,31.51,0000 0000 0000 0000 000000
2016-05-03 12:39:03,0.03,1.51,0.00,24.44,28.15,31.22,14.44,49.40,1017.10,2031.89,2892.92,2742.97,3076.42,599.82,593.33,31.56,0000 0000 0000 0000 000000
2016-05-03 12:44:05,0.03,1.51,0.00,24.41,28.13,31.20,14.48,49.47,1017.08,2031.92,2892.15,2742.60,3076.02,600.11,593.65,31.61,0000 0000 0000 0000 000000
2016-05-03 12:49:06,0.01,1.51,0.00,24.35,28.12,31.18,14.48,49.55,1017.09,2031.94,2891.96,2742.08,3075.94,600.11,593.66,31.66,0000 0000 0000 0000 000000
2016-05-03 12:54:08,0.03,1.52,0.00,24.35,28.12,31.18,14.54,49.58,1017.10,2031.95,2891.22,2742.00,3075.24,600.39,594.01,31.71,0000 0000 0000 0000 000000